Weather History for Sacramento, CA

Change the Weather History Date:

Tuesday, February 19, 2013

  Actual Average Record
Temperature  
Mean Temperature 43 °F -  
Max Temperature 47 °F 61 °F 76 °F (1964)
Min Temperature 39 °F 42 °F 33 °F (1961)
Degree Days  
Heating Degree Days 22    
Cooling Degree Days 0    
Moisture  
Dew Point 37 °F    
Average Humidity 74    
Maximum Humidity 83    
Minimum Humidity 65    
Precipitation  
Precipitation 0.34 in 0.12 in 1.38 in (1980)
Month to date precipitation 0.36 2.37  
Year to date precipitation 1.32 6.01  
Since 1 July precipitation 12.61 12.63  
Sea Level Pressure  
Sea Level Pressure 29.83 in    
Wind  
Wind Speed 9 mph (South)    
Max Wind Speed 20 mph    
Max Gust Speed 30 mph    
Visibility 9 miles    
Events Rain    
T = Trace of Precipitation, MM = Missing Value Source: NWS Daily Summary

Daily Weather History Graph

Daily Weather History Graph

Search for Another Location

Airport:

Trip Planner

Search our weather history database for the weather conditions in past years. The results will help you decide how hot, cold, wet, or windy it might be!

Date:

Astronomy

Feb. 19, 2013 Rise Set
Actual Time 6:51 AM PST 5:48 PM PST
Civil Twilight 6:24 AM PST 6:15 PM PST
Nautical Twilight 5:53 AM PST 6:46 PM PST
Astronomical Twilight 5:22 AM PST 7:17 PM PST
Moon 12:26 PM PST (2/19) 2:25 AM PST (2/19)
Length of Visible Light 11h 51m
Length of Day
10h 57m
Waxing Gibbous, 68% of the Moon is Illuminated
Feb 19
Waxing Gibbous
Feb 25
Full
Mar 4
Last Quarter
Mar 11
New
Mar 19
First Quarter

Hourly Weather History & Observations

Time (PST) Temp. Windchill Dew Point Humidity Pressure Visibility Wind Dir Wind Speed Gust Speed Precip Events Conditions
12:46 AM 44.6 °F 38.8 °F 35.6 °F 71% 29.93 in 10.0 mi SSW 11.5 mph - N/A   Mostly Cloudy
12:53 AM 45.0 °F 40.1 °F 36.0 °F 71% 29.93 in 10.0 mi SSW 9.2 mph - N/A   Mostly Cloudy
1:20 AM 44.6 °F 40.2 °F 35.6 °F 71% 29.93 in 10.0 mi SSW 8.1 mph - N/A   Scattered Clouds
1:53 AM 43.0 °F 38.2 °F 35.1 °F 74% 29.93 in 10.0 mi South 8.1 mph - N/A   Partly Cloudy
2:53 AM 42.1 °F 37.7 °F 35.1 °F 76% 29.91 in 10.0 mi Variable 6.9 mph - N/A   Clear
3:53 AM 41.0 °F 37.1 °F 34.0 °F 76% 29.90 in 10.0 mi South 5.8 mph - N/A   Clear
4:53 AM 41.0 °F 35.8 °F 34.0 °F 76% 29.90 in 10.0 mi South 8.1 mph - N/A   Clear
5:53 AM 42.1 °F 38.4 °F 35.1 °F 76% 29.90 in 10.0 mi South 5.8 mph - N/A   Clear
6:20 AM 44.6 °F 40.7 °F 35.6 °F 71% 29.90 in 10.0 mi SSE 6.9 mph - N/A   Overcast
6:53 AM 44.1 °F 40.1 °F 36.0 °F 73% 29.88 in 10.0 mi SSE 6.9 mph - N/A   Overcast
7:53 AM 44.1 °F 39.5 °F 37.0 °F 76% 29.87 in 10.0 mi SSE 8.1 mph - 0.00 in Rain Light Rain
8:28 AM 46.4 °F 42.4 °F 37.4 °F 71% 29.86 in 10.0 mi SSE 8.1 mph 16.1 mph 0.00 in   Overcast
8:53 AM 46.0 °F 40.6 °F 37.9 °F 73% 29.84 in 10.0 mi SSE 11.5 mph - 0.00 in   Overcast
10:41 AM 46.4 °F 42.9 °F 39.2 °F 76% 29.81 in 5.0 mi South 6.9 mph - 0.03 in Rain Light Rain
10:53 AM 45.0 °F 37.6 °F 39.9 °F 82% 29.82 in 3.0 mi SSW 17.3 mph 29.9 mph 0.05 in Rain Rain
10:56 AM 44.6 °F 38.1 °F 39.2 °F 81% 29.82 in 2.5 mi SSW 13.8 mph 29.9 mph 0.02 in Rain Rain
11:11 AM 44.6 °F 39.2 °F 37.4 °F 76% 29.81 in 4.0 mi South 10.4 mph 23.0 mph 0.07 in Rain Light Rain
11:21 AM 44.6 °F 40.2 °F 39.2 °F 81% 29.80 in 5.0 mi South 8.1 mph 16.1 mph 0.09 in Rain Rain
11:53 AM 45.0 °F 39.7 °F 39.9 °F 82% 29.80 in 10.0 mi South 10.4 mph - 0.11 in Rain Light Rain
12:27 PM 44.6 °F 40.7 °F 41.0 °F 87% 29.79 in 10.0 mi SSW 6.9 mph - N/A   Overcast
12:36 PM 44.6 °F 39.7 °F 41.0 °F 87% 29.79 in 10.0 mi South 9.2 mph - 0.00 in   Overcast
12:53 PM 46.0 °F 42.5 °F 42.1 °F 86% 29.78 in 10.0 mi SSW 6.9 mph - 0.00 in   Overcast
1:12 PM 46.4 °F 42.4 °F 41.0 °F 81% 29.77 in 10.0 mi South 8.1 mph - N/A   Scattered Clouds
1:53 PM 43.0 °F 36.8 °F 37.9 °F 82% 29.78 in 1.8 mi West 11.5 mph 27.6 mph 0.03 in Rain Heavy Rain
2:03 PM 39.2 °F 35.9 °F 33.8 °F 81% 29.75 in 3.0 mi ENE 4.6 mph - 0.13 in Rain Light Rain
2:53 PM 45.0 °F 41.8 °F 37.0 °F 74% 29.75 in 10.0 mi SE 5.8 mph - 0.13 in   Overcast
4:53 PM 46.0 °F 42.5 °F 37.9 °F 73% 29.74 in 10.0 mi SSE 6.9 mph - N/A   Partly Cloudy
5:53 PM 44.1 °F 40.1 °F 37.9 °F 79% 29.74 in 10.0 mi SE 6.9 mph - 0.00 in Rain Light Rain
6:53 PM 42.1 °F 40.2 °F 36.0 °F 79% 29.76 in 10.0 mi ESE 3.5 mph - 0.00 in   Mostly Cloudy
7:51 PM 42.8 °F 36.2 °F 35.6 °F 76% 29.79 in 10.0 mi North 12.7 mph - N/A   Mostly Cloudy
7:53 PM 42.1 °F 33.6 °F 36.0 °F 79% 29.80 in 10.0 mi NNW 18.4 mph 25.3 mph N/A   Mostly Cloudy
8:29 PM 39.2 °F 33.0 °F 35.6 °F 87% 29.79 in 10.0 mi North 9.2 mph - 0.00 in Rain Light Rain
8:53 PM 39.9 °F 34.5 °F 34.0 °F 79% 29.78 in 10.0 mi North 8.1 mph - 0.00 in Rain Light Rain
9:53 PM 39.0 °F 34.8 °F 34.0 °F 82% 29.80 in 10.0 mi NNW 5.8 mph - 0.00 in   Partly Cloudy
10:53 PM 37.9 °F 32.7 °F 34.0 °F 86% 29.81 in 10.0 mi NNW 6.9 mph - N/A   Clear
11:53 PM 37.0 °F 34.5 °F 33.1 °F 86% 29.84 in 10.0 mi NNW 3.5 mph - N/A   Clear